Falls City, NE

12:25 AM CST on December 17, 2017 (GMT -0600)
Brenner

Weather History for KFNB - August, 2014

Change the Weather History Date:

Friday, August 22, 2014

  Actual Average Record
Temperature  
Mean Temperature 78 °F -  
Max Temperature 82 °F 88 °F 101 °F (1983)
Min Temperature 73 °F 64 °F 52 °F (1965)
Cooling Degree Days 12    
Growing Degree Days 28 (Base 50)    
Moisture  
Dew Point 73 °F    
Average Humidity 84    
Maximum Humidity 94    
Minimum Humidity 69    
Precipitation  
Precipitation 0.22 in - - ()
Sea Level Pressure  
Sea Level Pressure 29.89 in    
Wind  
Wind Speed 6 mph (SSE)    
Max Wind Speed 12 mph    
Max Gust Speed 20 mph    
Visibility 10 miles    
Events Rain , Thunderstorm    
Averages and records for this station are not official NWS values.
T = Trace of Precipitation, MM = Missing Value Source: NWS Daily Summary

Daily Weather History Graph

Daily Weather History Graph

Search for Another Location

Airport or City:

Trip Planner

Search our weather history database for the weather conditions in past years. The results will help you decide how hot, cold, wet, or windy it might be!

Date:

Astronomy

Aug. 22, 2014 Rise Set
Actual Time 6:40 AM CDT 8:09 PM CDT
Civil Twilight 6:12 AM CDT 8:37 PM CDT
Nautical Twilight 5:37 AM CDT 9:11 PM CDT
Astronomical Twilight 5:01 AM CDT 9:47 PM CDT
Moon 4:04 AM CDT (8/22) 6:18 PM CDT (8/22)
Length of Visible Light 14h 25m
Length of Day
13h 28m
Waning Crescent, 7% of the Moon is Illuminated
Aug 22
Waning Crescent
Aug 25
New
Sep 2
First Quarter
Sep 8
Full
Sep 15
Last Quarter

Hourly Weather History & Observations

Time (CDT) Temp. Heat Index Dew Point Humidity Pressure Visibility Wind Dir Wind Speed Gust Speed Precip Events Conditions
12:53 AM 82.0 °F 86.3 °F 71.1 °F 69% 29.83 in 10.0 mi SSW 6.9 mph - N/A   Scattered Clouds
1:53 AM 82.0 °F 86.7 °F 72.0 °F 71% 29.81 in 10.0 mi South 6.9 mph - N/A   Clear
2:53 AM 81.0 °F 85.2 °F 72.0 °F 74% 29.85 in 10.0 mi SSW 4.6 mph - N/A   Clear
3:53 AM 80.6 °F 84.6 °F 71.6 °F 74% 29.90 in 10.0 mi South 3.5 mph - N/A   Clear
4:53 AM 79.0 °F - 72.0 °F 79% 29.85 in 10.0 mi South 4.6 mph - N/A   Clear
5:32 AM 78.1 °F - 72.0 °F 81% 29.89 in 10.0 mi Calm Calm - N/A Thunderstorm Scattered Clouds
5:53 AM 79.0 °F - 72.0 °F 79% 29.85 in 10.0 mi SSW 4.6 mph - N/A Thunderstorm Thunderstorm
6:23 AM 79.0 °F - 72.0 °F 79% 29.88 in 10.0 mi South 5.8 mph - N/A   Scattered Clouds
6:53 AM 79.0 °F - 73.0 °F 82% 29.87 in 10.0 mi South 4.6 mph - N/A   Mostly Cloudy
7:53 AM 79.0 °F - 73.0 °F 82% 29.88 in 10.0 mi South 8.1 mph - N/A Thunderstorm Scattered Clouds
8:53 AM 79.0 °F - 71.1 °F 77% 29.90 in 10.0 mi SSW 8.1 mph - N/A Thunderstorm Partly Cloudy
9:28 AM 78.1 °F - 70.0 °F 76% 29.92 in 10.0 mi South 6.9 mph - N/A Thunderstorm Thunderstorm
9:53 AM 79.0 °F - 70.0 °F 74% 29.89 in 4.0 mi SW 8.1 mph - 0.04 in Rain , Thunderstorm Light Thunderstorms and Rain
10:19 AM 75.0 °F - 72.0 °F 90% 29.91 in 10.0 mi East 4.6 mph - 0.01 in Thunderstorm Mostly Cloudy
10:53 AM 77.0 °F - 71.1 °F 82% 29.89 in 10.0 mi South 11.5 mph 19.6 mph 0.01 in Thunderstorm Mostly Cloudy
11:18 AM 75.0 °F - 72.0 °F 90% 29.92 in 10.0 mi South 9.2 mph - 0.01 in Rain Light Rain
11:42 AM 73.9 °F - 71.1 °F 91% 29.91 in 10.0 mi SSE 5.8 mph - 0.02 in Rain , Thunderstorm Light Rain
11:53 AM 73.9 °F - 71.1 °F 91% 29.88 in 10.0 mi NNE 6.9 mph - 0.02 in Rain , Thunderstorm Light Rain
12:03 PM 73.4 °F - 71.6 °F 94% 29.90 in 10.0 mi NE 4.6 mph - N/A Rain , Thunderstorm Light Thunderstorms and Rain
12:18 PM 73.9 °F - 71.1 °F 91% 29.90 in 10.0 mi East 4.6 mph - 0.00 in Thunderstorm Scattered Clouds
12:35 PM 75.0 °F - 72.0 °F 90% 29.91 in 10.0 mi SSE 6.9 mph - 0.00 in   Clear
12:53 PM 77.0 °F - 73.0 °F 88% 29.87 in 10.0 mi South 8.1 mph - 0.00 in   Clear
1:53 PM 81.0 °F 85.8 °F 73.0 °F 77% 29.91 in 10.0 mi WSW 6.9 mph - N/A   Clear
2:19 PM 80.1 °F 84.2 °F 73.0 °F 79% 29.94 in 10.0 mi Calm Calm - N/A Thunderstorm Scattered Clouds
2:42 PM 78.1 °F - 73.9 °F 87% 29.93 in 4.0 mi ESE 5.8 mph - 0.06 in Rain , Thunderstorm Thunderstorms and Rain
2:53 PM 78.1 °F - 73.9 °F 87% 29.90 in 2.5 mi Variable 5.8 mph - 0.12 in Rain , Thunderstorm Heavy Thunderstorms and Rain
3:06 PM 80.1 °F 85.4 °F 75.9 °F 87% 29.95 in 10.0 mi South 5.8 mph - 0.00 in Rain , Thunderstorm Light Thunderstorms and Rain
3:17 PM 80.1 °F 85.1 °F 75.0 °F 85% 29.95 in 10.0 mi Calm Calm - 0.00 in Thunderstorm Mostly Cloudy
3:53 PM 80.6 °F 87.1 °F 77.0 °F 89% 29.92 in 10.0 mi SE 9.2 mph - N/A Thunderstorm Scattered Clouds
4:12 PM 81.0 °F 86.7 °F 75.0 °F 82% 29.92 in 10.0 mi South 8.1 mph - N/A Thunderstorm Thunderstorm
4:29 PM 79.0 °F - 75.0 °F 88% 29.90 in 7.0 mi SE 5.8 mph - 0.02 in Rain , Thunderstorm Light Rain
4:38 PM 79.0 °F - 75.0 °F 88% 29.89 in 10.0 mi SE 5.8 mph - 0.02 in Rain , Thunderstorm Light Thunderstorms and Rain
4:53 PM 79.0 °F - 75.0 °F 88% 29.86 in 10.0 mi SE 3.5 mph - 0.02 in Rain , Thunderstorm Light Thunderstorms and Rain
5:01 PM 78.8 °F - 75.2 °F 89% 29.87 in 10.0 mi ESE 5.8 mph - N/A   Mostly Cloudy
5:53 PM 81.0 °F 87.9 °F 77.0 °F 88% 29.86 in 10.0 mi East 4.6 mph - 0.01 in   Partly Cloudy
6:53 PM 80.1 °F 85.1 °F 75.0 °F 85% 29.87 in 10.0 mi ENE 4.6 mph - N/A   Clear
7:53 PM 78.1 °F - 73.9 °F 87% 29.88 in 10.0 mi NE 5.8 mph - N/A   Clear
8:53 PM 77.0 °F - 73.9 °F 90% 29.89 in 10.0 mi ENE 5.8 mph - N/A   Partly Cloudy
9:53 PM 75.9 °F - 73.9 °F 94% 29.88 in 10.0 mi East 5.8 mph - N/A   Partly Cloudy
10:53 PM 75.9 °F - 73.0 °F 91% 29.88 in 10.0 mi East 5.8 mph - 0.00 in   Clear
11:53 PM 75.0 °F - 72.0 °F 90% 29.87 in 10.0 mi SE 4.6 mph - N/A   Clear